Location: *
(46.1866°S, 178.5290°W)
Time: 14:01:09
(UTC+00:00)

Meteor 2-6 Rocket - Pass Details

Date: 19 May 2021
Orbit: 807 x 913 km, 81.3° (Epoch: 21 June)

Event Time Altitude Azimuth Distance (km) Brightness Sun altitude
Rises 06:33:26 0° 187° (S) 3,425 7.4 -21.5°
Reaches altitude 10° 06:35:59 10° 182° (S) 2,469 6.6 -21.9°
Enters shadow 06:40:51 48° 126° (SE) 1,077 4.3 -22.7°
